Theta_e
295 295 295 296 296 296 296 296 295 295 295 295 295 295 295 295 296 296 297 297 297 297 298 298 297 296 297 297 297 300 303 303 304 310 316 318 320 322 322 322 324 324 324 325 324 321 323 324 324 326 325 323 323 324 322 323 322 321 320 318 317 316 315 316 316 315 311 308 309 308 308 309 311 312 311 311 312 313 313 315 316 318 319 319 320
294 294 294 294 293 294 295 295 295 293 294 295 294 294 294 295 295 294 296 296 296 296 297 298 298 297 296 296 297 299 301 302 301 304 310 315 318 319 320 323 323 322 323 324 323 324 322 322 324 324 324 322 323 323 323 320 321 321 319 317 317 316 315 316 315 312 309 306 303 303 304 305 306 308 308 309 310 310 311 314 316 317 318 319 318
292 292 292 292 293 293 292 292 292 293 294 294 294 294 295 294 295 295 294 295 296 296 296 296 299 300 298 297 299 299 301 302 303 305 309 313 316 317 319 320 321 321 322 323 322 322 322 321 322 323 322 321 321 322 321 320 321 320 319 316 314 315 314 315 313 313 309 309 308 305 299 300 303 304 305 306 309 309 310 312 313 316 316 317 316
289 290 290 291 291 291 292 292 293 293 292 292 293 294 294 294 294 294 294 295 295 296 297 296 296 299 300 299 298 298 298 302 303 304 304 307 309 312 315 316 321 321 323 323 322 322 321 321 322 322 320 320 321 320 319 319 318 318 317 315 315 309 310 310 312 314 311 309 303 304 303 303 296 299 300 301 304 307 309 310 311 313 314 314 314
289 289 290 290 290 290 291 291 292 292 292 292 293 292 292 294 295 295 295 294 295 295 296 297 295 296 298 298 299 298 298 298 299 298 299 301 304 309 312 314 316 319 321 321 319 321 322 322 321 321 320 320 320 320 319 318 318 317 317 315 314 311 309 310 311 314 312 313 309 305 300 299 301 301 300 299 302 303 303 306 307 309 309 310 313
289 289 289 289 290 290 291 291 291 291 291 292 293 293 293 293 293 294 295 295 295 295 295 296 296 293 294 294 294 294 294 294 295 295 297 298 302 306 310 312 314 316 318 321 319 319 320 321 320 320 320 320 319 319 319 319 318 317 317 316 315 314 311 310 309 310 312 313 313 312 309 303 302 300 303 294 298 299 299 302 303 304 306 307 308
290 289 289 288 289 289 290 290 291 290 291 292 292 292 293 293 293 294 294 294 296 295 295 295 294 295 293 294 295 294 294 295 296 298 299 299 301 304 307 310 312 313 315 318 320 319 320 319 318 318 319 318 316 318 318 318 318 317 317 316 315 315 313 309 309 309 310 311 313 309 308 309 307 303 302 296 293 297 300 300 300 300 302 304 306
288 288 288 288 289 289 289 290 290 290 291 292 292 292 292 292 293 293 293 294 294 295 295 295 293 294 294 292 294 295 295 295 295 297 300 300 300 302 303 306 308 310 312 314 319 319 319 319 319 318 317 318 315 316 316 318 318 318 317 317 316 315 314 311 310 310 308 308 310 307 308 308 307 307 305 301 299 294 294 297 299 299 300 301 301
288 288 288 288 288 289 289 289 291 291 292 291 292 292 293 293 293 293 292 293 293 293 295 294 294 293 293 293 292 295 296 296 297 297 298 299 298 300 301 303 306 308 308 309 314 318 317 318 318 318 317 317 313 316 317 318 317 316 315 315 315 314 314 314 313 310 311 310 307 305 308 307 307 303 300 299 297 294 292 296 295 298 300 300 299
289 288 288 288 289 289 290 290 290 291 291 293 292 292 292 292 292 292 292 292 293 293 293 294 294 294 293 293 293 292 295 296 296 296 297 299 297 299 300 300 302 304 305 306 308 315 317 317 318 318 317 317 313 317 317 317 317 316 315 314 315 313 313 313 312 311 312 311 309 306 305 305 305 303 301 301 298 299 295 296 297 297 297 294 295
288 288 288 288 289 289 290 289 290 291 291 292 292 292 292 292 291 291 291 291 292 292 293 292 293 293 293 293 293 292 293 296 296 295 296 297 297 297 298 299 300 301 303 303 305 309 315 315 317 318 318 315 312 316 316 316 316 316 315 315 314 312 312 312 311 312 311 310 308 306 306 307 305 304 303 303 301 295 295 295 298 301 301 296 295
287 287 287 288 288 288 289 289 289 290 290 290 291 291 291 291 291 290 291 291 291 291 291 291 291 291 293 293 293 293 292 295 295 295 295 296 297 297 297 298 297 299 301 302 303 305 310 315 315 317 316 315 314 315 316 316 316 315 315 314 313 313 312 311 310 310 310 308 307 306 307 307 307 306 306 305 303 300 300 298 297 299 300 297 294
286 286 286 287 287 287 288 288 289 289 289 290 291 291 290 290 290 290 289 289 291 291 290 291 291 291 292 292 292 292 293 294 295 296 296 297 297 296 296 296 297 297 298 300 301 302 304 312 315 316 316 315 314 315 315 316 316 315 314 314 313 312 311 311 310 309 309 307 306 306 307 305 306 308 307 306 305 304 302 298 297 301 298 294 294
286 286 286 286 287 287 288 288 289 289 289 289 288 290 290 289 288 289 289 289 290 291 291 291 291 292 292 292 292 292 293 293 295 295 296 296 297 297 296 296 297 296 297 298 301 302 302 305 312 315 316 315 313 315 315 315 315 314 314 314 312 312 312 311 310 309 309 308 307 305 305 305 305 307 307 307 305 302 299 300 297 297 299 296 294
286 286 286 286 287 287 288 288 288 288 288 289 288 287 289 288 288 287 287 287 286 286 287 287 288 291 292 293 293 293 293 293 295 296 296 296 297 296 297 297 296 296 297 298 300 300 301 302 308 314 315 316 314 314 314 314 314 314 314 313 313 313 312 310 310 309 308 307 306 306 305 304 305 305 307 307 307 305 303 301 300 295 291 294 293
286 286 286 286 287 287 287 287 288 287 287 288 288 288 287 287 286 285 283 283 282 283 284 284 286 287 288 290 292 293 293 294 294 296 296 297 296 297 296 297 297 297 298 298 299 300 300 300 303 310 314 315 314 314 314 313 313 313 313 313 312 312 311 310 309 309 309 308 307 306 305 304 305 305 307 307 308 308 306 304 302 299 294 290 293
285 285 285 286 287 287 288 288 288 287 287 287 287 288 286 284 283 282 282 281 281 282 283 284 284 285 286 286 290 292 292 293 293 295 296 296 296 297 297 297 298 297 297 297 297 298 299 300 300 306 313 314 313 313 313 313 313 312 312 312 311 311 311 310 309 308 309 308 307 306 305 305 304 305 306 306 307 308 307 306 306 302 299 294 292
285 286 286 286 286 287 287 286 287 286 286 285 285 286 284 283 283 282 282 282 280 280 280 281 283 285 286 286 289 291 292 293 294 294 295 296 296 296 297 296 296 297 296 296 296 297 297 296 299 303 310 313 312 313 313 313 312 312 312 312 312 311 310 310 309 308 308 308 306 305 305 304 304 303 304 306 306 306 306 306 306 305 304 299 297
284 285 285 285 285 286 287 286 286 286 285 285 284 283 283 282 283 284 281 283 284 285 285 281 283 285 287 287 288 291 293 293 294 295 295 295 295 296 296 296 297 296 295 295 295 295 296 296 298 300 307 311 312 312 312 312 312 311 312 311 311 310 309 308 308 308 307 306 305 304 303 303 301 302 303 303 304 305 304 304 304 305 304 303 300
284 285 285 285 285 285 284 284 284 284 284 283 283 283 283 282 281 283 283 282 284 283 281 284 283 280 281 283 285 289 292 293 294 294 294 294 295 295 296 296 296 296 295 295 294 294 294 295 297 298 303 311 311 312 312 312 311 311 310 311 311 310 309 308 307 307 306 305 304 302 301 302 300 301 302 302 302 303 303 303 303 303 303 303 302
284 284 284 284 285 285 285 284 283 283 283 282 281 280 281 281 281 280 282 279 279 282 282 279 281 280 280 280 281 282 283 290 292 293 294 294 295 296 296 296 296 295 295 294 293 293 294 294 295 296 299 307 311 311 312 311 310 310 310 310 310 309 308 308 306 303 304 303 302 302 301 301 300 300 301 302 301 301 301 302 303 303 302 302 301
284 285 284 284 284 284 283 283 283 282 280 280 281 280 280 280 281 280 279 281 279 279 282 278 277 279 279 279 279 280 282 284 288 292 293 294 295 296 296 296 295 295 295 294 294 293 293 294 294 295 297 303 310 311 311 311 309 309 309 310 309 308 307 307 305 303 303 303 302 302 301 301 299 300 300 301 301 300 300 300 300 301 301 301 302
283 283 284 284 283 283 283 282 281 280 280 279 277 277 278 278 277 277 278 278 279 280 279 283 278 277 278 279 278 279 280 282 283 284 290 293 294 295 296 296 296 295 295 295 294 293 293 293 293 294 295 300 308 310 310 310 309 309 308 308 309 308 307 305 304 304 303 303 302 301 301 301 300 299 299 300 300 299 299 299 299 300 300 301 301
284 284 283 283 282 282 281 280 279 279 278 277 277 278 279 280 279 279 277 277 279 277 277 280 281 277 276 277 277 278 278 280 281 282 283 289 294 295 295 296 296 295 294 294 295 294 293 292 292 293 294 298 305 309 309 309 309 309 308 308 308 308 307 306 305 305 304 303 302 302 301 301 299 298 298 299 300 299 299 299 298 299 299 299 299
282 282 282 282 281 280 279 279 278 278 278 277 277 277 277 276 277 275 277 279 275 276 276 277 275 274 275 275 276 277 277 278 280 282 283 286 290 293 294 294 295 295 294 294 294 294 292 292 292 292 293 296 303 308 308 308 309 309 308 308 308 307 307 307 306 305 303 303 303 302 302 301 300 298 298 298 299 298 298 298 297 298 298 298 297
282 282 281 280 280 279 278 278 279 278 277 276 276 275 275 274 274 275 275 274 275 275 275 274 274 273 274 275 275 276 276 277 278 279 280 282 286 290 292 294 295 294 294 294 293 293 292 291 291 292 292 294 299 306 308 308 308 309 308 308 307 307 307 307 306 306 305 304 303 303 303 302 301 299 298 297 298 297 297 297 296 296 296 296 296
281 281 280 280 279 278 278 277 277 276 276 276 275 275 275 273 273 274 274 274 275 274 273 273 273 273 273 273 275 276 276 276 277 278 279 280 281 281 283 290 293 294 293 292 292 291 291 290 290 291 291 292 296 303 308 307 307 308 308 307 306 306 306 307 306 306 305 305 304 303 303 303 301 300 299 297 297 296 297 296 296 295 295 294 293
281 280 279 278 278 277 277 277 277 276 275 278 279 275 274 273 272 272 272 273 272 272 272 272 272 273 272 273 274 275 276 277 278 278 278 278 279 280 282 285 291 292 292 292 291 291 291 290 290 290 291 292 294 300 306 307 306 307 307 306 306 305 305 306 306 306 305 305 304 303 303 303 302 301 300 299 297 295 296 294 295 295 294 292 291
280 279 278 277 276 276 276 275 275 274 274 274 273 274 273 272 272 271 271 271 272 272 271 271 271 271 272 273 273 274 276 276 277 277 277 278 278 280 281 282 287 291 292 292 291 290 290 289 290 290 290 291 293 298 305 306 306 306 307 305 305 304 305 305 305 305 305 304 304 304 303 303 301 297 296 297 296 295 295 293 293 293 292 291 291
278 278 277 277 276 276 275 275 274 274 273 273 275 274 271 270 270 270 270 271 271 271 270 270 270 271 272 272 273 274 275 276 276 276 276 277 278 278 279 281 283 288 290 290 290 290 289 289 289 289 289 291 293 298 300 300 302 305 306 305 305 304 304 304 304 304 304 303 303 304 303 297 295 294 294 295 296 295 295 296 294 293 291 291 291
278 277 276 276 276 275 275 274 273 273 272 272 271 271 271 270 270 270 270 270 270 269 269 269 269 270 271 271 272 272 273 274 275 276 276 277 277 277 278 279 281 283 286 288 288 288 288 289 289 289 289 290 292 296 299 300 301 301 305 305 303 302 302 303 303 302 302 302 302 302 302 297 295 293 295 295 295 295 294 295 294 294 293 292 291
276 276 276 275 275 274 274 273 272 272 272 271 270 270 269 269 269 269 269 269 269 269 268 269 269 269 270 270 271 271 272 273 274 275 276 276 277 277 277 278 278 280 283 286 286 287 288 288 288 289 289 289 291 293 298 300 300 301 301 304 304 301 300 302 302 302 302 301 301 301 301 300 298 298 298 296 295 294 294 294 294 293 293 294 294
276 275 275 274 274 273 273 273 272 272 271 271 271 269 268 268 268 269 269 268 268 268 268 268 268 269 269 270 270 270 271 273 274 275 276 276 276 276 276 277 277 280 282 283 285 286 287 288 288 288 288 289 290 293 297 299 300 300 300 302 301 302 299 299 301 301 301 301 300 298 299 301 300 293 295 298 297 294 293 293 293 292 292 293 294
275 275 274 274 274 273 273 272 272 272 271 271 272 270 269 269 268 268 267 267 267 267 267 267 268 268 269 269 270 270 270 272 274 275 275 275 276 276 276 277 278 280 282 283 285 285 286 287 287 287 288 289 290 292 296 298 299 299 300 301 302 300 300 301 301 301 300 300 300 298 297 298 299 296 297 298 297 295 292 291 292 291 291 291 292
274 274 273 273 273 272 272 271 271 271 271 271 271 270 269 268 268 267 266 266 266 266 266 267 267 267 268 269 269 269 270 271 273 274 275 275 276 276 276 277 278 280 281 282 284 284 285 286 287 287 288 288 290 292 296 298 299 299 300 301 302 300 299 299 300 300 300 300 299 299 299 299 298 296 297 297 296 293 291 290 290 289 290 291 292
273 273 273 272 272 271 271 271 271 270 270 270 269 269 268 267 267 266 266 266 266 265 265 266 266 267 268 268 268 269 269 270 270 272 274 275 276 276 276 277 278 280 282 284 285 286 286 286 287 287 287 288 289 292 295 297 298 299 299 299 299 298 297 297 298 297 298 299 299 298 297 298 298 295 294 295 295 293 290 290 289 289 289 291 292
274 273 272 272 272 271 271 270 270 269 269 268 268 268 267 266 266 266 265 265 265 264 265 265 266 266 267 268 268 268 268 268 269 270 272 275 276 276 277 277 277 280 283 283 284 285 286 286 287 287 287 288 289 291 295 297 298 299 298 299 297 297 296 296 296 297 297 297 296 297 297 297 297 296 294 295 295 293 290 290 289 288 289 289 290
273 273 272 272 271 271 270 269 269 268 268 268 268 267 266 265 265 265 264 264 264 263 264 265 265 266 266 267 267 267 267 267 268 269 271 273 276 277 277 279 278 280 283 284 285 286 287 287 287 287 288 288 289 292 295 296 297 298 297 297 297 297 295 295 295 295 295 296 295 293 294 296 296 296 294 295 295 292 290 290 289 288 288 288 289
272 271 270 270 270 269 269 268 268 267 268 268 267 266 265 264 264 264 264 263 263 263 263 264 264 265 266 266 266 267 267 267 267 268 270 272 275 276 278 280 280 282 284 286 287 287 287 288 288 288 288 288 289 291 294 296 297 297 296 297 298 296 294 294 295 294 294 295 295 292 292 294 296 296 295 295 295 292 290 290 290 289 288 288 289
271 271 270 270 269 268 267 266 266 266 267 266 266 265 264 263 263 264 262 262 262 263 263 264 265 265 265 265 266 266 266 266 267 268 269 271 274 277 278 278 280 281 283 286 288 287 287 287 288 288 288 289 290 292 292 296 296 297 297 297 298 296 294 293 294 294 293 293 293 293 292 294 296 295 294 295 295 294 291 290 290 290 289 288 290
270 270 270 268 267 266 266 265 266 266 266 266 265 264 263 263 263 262 262 262 263 263 263 264 264 264 264 265 265 266 266 266 267 268 269 270 273 276 278 279 279 281 285 287 286 286 286 287 287 288 289 289 291 292 292 295 296 297 297 297 297 296 295 294 294 293 293 293 292 293 292 293 295 295 294 294 294 294 293 290 290 290 290 291 291
270 270 268 267 266 265 265 265 265 265 265 265 264 263 262 262 262 261 262 263 263 263 263 263 263 263 264 264 265 265 266 266 267 268 269 270 273 277 279 280 281 282 285 285 286 286 286 286 287 288 289 290 291 291 293 294 296 296 296 296 297 295 295 294 294 293 293 293 293 294 292 293 294 294 294 294 294 294 293 290 291 293 293 293 290
267 267 267 266 264 264 264 264 264 265 265 264 263 262 262 261 260 261 262 262 262 262 262 262 262 263 263 264 265 265 266 267 267 269 269 270 273 277 280 281 281 282 283 284 285 285 285 286 287 288 290 291 292 292 292 293 295 296 296 296 297 295 296 294 294 293 293 293 295 295 293 292 293 293 293 293 294 294 292 291 293 293 293 292 291
267 266 265 264 263 263 263 263 264 264 264 264 263 261 261 260 260 262 262 262 262 262 262 261 262 263 263 264 265 266 267 267 268 269 270 271 274 278 280 281 282 282 283 283 284 285 285 286 286 288 290 291 292 292 292 293 294 295 296 297 297 296 296 294 295 295 294 295 294 294 292 292 293 293 293 293 293 293 291 292 292 292 292 291 289
265 264 264 264 262 262 262 262 263 263 263 263 263 261 260 259 260 261 261 260 261 261 260 261 261 262 264 265 266 266 267 268 269 270 270 272 275 279 280 282 282 282 283 283 284 285 285 286 287 288 290 290 291 292 292 292 293 294 296 296 296 296 296 296 294 294 295 295 294 294 293 292 292 293 293 293 292 292 292 292 292 291 290 290 289
264 263 263 262 262 261 261 260 261 262 262 262 262 261 259 259 260 260 260 260 260 260 260 260 261 263 265 268 268 269 269 269 270 271 273 274 277 281 282 282 283 283 284 284 284 285 286 287 287 289 289 290 291 291 291 292 292 293 294 295 295 295 295 294 294 294 294 294 294 293 293 292 292 292 292 291 290 290 291 291 290 290 289 290 289
262 262 262 261 261 260 259 260 259 261 261 261 261 261 260 260 260 260 260 259 259 259 260 260 261 264 266 269 270 270 271 272 273 275 277 279 281 282 283 283 284 284 284 285 285 285 286 287 287 288 289 289 290 290 291 291 292 293 294 294 295 294 293 293 294 293 293 294 293 293 292 292 292 292 292 291 291 290 290 290 290 290 290 290 290
263 262 262 260 260 259 259 259 259 260 261 260 260 260 260 259 260 260 259 259 259 259 259 260 262 265 267 268 269 271 272 274 276 277 279 281 283 284 283 283 284 284 284 285 285 286 286 287 287 288 288 289 289 290 290 290 291 292 293 294 294 294 293 294 294 294 293 293 292 292 292 291 291 291 291 291 291 290 290 290 290 290 290 290 289
261 261 261 259 259 258 259 258 259 260 260 259 259 259 259 259 259 259 259 258 258 259 260 261 263 265 266 267 268 269 270 271 274 278 281 282 283 285 285 285 286 286 286 286 286 287 287 288 288 288 288 288 289 289 290 291 290 292 291 292 293 293 294 294 293 293 290 290 291 291 291 290 290 290 290 290 291 290 290 290 289 290 290 290 290
261 261 260 259 259 258 258 258 258 259 259 258 258 258 258 258 258 258 258 257 257 258 260 261 263 265 265 266 266 267 268 270 272 274 278 282 285 286 286 286 286 287 287 288 288 287 288 288 288 289 290 289 289 290 291 292 292 292 292 293 293 294 294 293 293 293 292 291 291 291 291 290 290 289 289 290 290 290 290 290 290 289 290 290 290
260 259 258 258 258 258 258 257 258 258 258 257 257 257 257 258 258 258 257 257 257 258 260 261 263 264 265 265 266 266 267 269 270 272 275 279 283 285 287 288 287 287 288 288 289 289 290 290 289 289 289 291 291 291 292 292 292 292 292 293 293 293 293 293 293 291 291 291 291 290 290 290 290 290 289 290 290 290 290 290 290 290 290 290 289
Wind_Speed
9 10 12 12 11 11 11 11 12 14 14 16 15 15 16 17 17 18 17 18 16 16 15 14 14 15 14 13 14 14 12 12 13 13 13 12 15 14 15 15 14 16 15 11 12 13 12 12 12 13 13 14 13 15 14 14 15 14 12 12 16 14 10 7 9 12 13 8 7 8 6 5 6 6 6 4 5 6 5 6 5 8 9 8 8
9 9 11 11 11 13 12 12 15 17 16 17 16 16 16 16 16 16 15 17 17 17 16 14 13 13 14 15 14 13 12 11 13 13 14 14 15 14 12 13 14 15 14 13 12 12 9 8 10 13 13 12 11 12 16 15 18 15 12 10 10 14 11 13 12 11 9 14 12 7 5 5 5 6 6 3 3 4 5 6 7 7 10 9 5
11 11 12 13 15 16 14 13 14 15 16 17 17 17 17 15 14 16 15 15 16 17 16 16 15 14 14 15 15 14 12 11 11 12 13 13 14 14 13 11 13 15 16 13 13 13 11 10 11 11 12 13 12 13 12 13 10 14 16 12 11 9 9 11 15 15 14 11 12 13 7 7 1 3 3 3 2 4 5 5 7 8 10 9 7
13 13 14 14 15 14 14 14 16 16 16 16 17 17 14 14 16 16 16 16 15 16 15 18 19 17 14 14 15 14 14 12 11 10 11 13 14 15 14 13 13 15 15 13 13 14 14 14 11 11 13 13 13 12 15 12 11 13 15 15 15 12 8 11 15 15 12 18 11 10 9 9 6 6 5 1 2 3 5 6 5 8 9 8 6
12 13 14 16 16 16 16 16 16 15 16 17 17 17 14 18 19 19 17 17 16 16 17 18 17 17 15 15 14 14 13 12 11 9 9 10 12 12 14 14 15 14 15 14 13 14 14 12 12 12 12 13 13 13 16 16 16 14 14 14 15 17 14 11 13 12 14 18 17 10 6 8 12 8 8 2 2 2 1 3 4 7 7 8 9
11 14 17 18 19 19 19 18 18 18 18 17 17 18 20 19 19 20 17 17 17 18 18 17 16 16 16 15 15 14 15 14 12 12 12 11 10 12 15 15 14 13 13 13 13 14 14 14 13 13 14 13 12 14 17 16 18 15 15 14 16 17 18 14 15 9 12 12 14 15 15 14 15 12 14 6 2 3 2 2 2 4 5 7 5
12 15 18 20 19 19 20 19 20 20 20 19 19 20 22 21 21 21 20 18 17 18 19 16 17 16 18 18 16 17 16 12 10 10 9 10 9 11 11 12 13 14 14 14 15 16 15 13 12 11 13 13 12 12 14 17 17 16 14 13 14 14 15 17 19 12 9 8 6 2 6 7 13 17 14 8 6 1 2 2 2 3 4 5 7
14 16 20 20 20 20 21 21 19 20 20 20 19 20 23 24 24 23 19 18 19 19 19 18 18 18 18 18 17 16 16 15 14 11 9 8 10 9 10 9 12 11 12 15 17 17 16 15 14 13 10 11 13 13 14 15 14 14 15 14 14 13 17 18 20 16 17 12 5 5 7 11 15 8 8 14 11 12 5 3 2 3 4 4 3
15 16 19 21 21 21 21 21 21 22 20 20 20 20 21 23 24 23 24 22 21 23 19 19 18 18 19 17 17 16 16 15 13 12 9 8 10 9 10 10 9 10 10 12 16 17 15 16 17 15 14 14 12 13 13 15 17 18 13 15 16 15 13 15 16 17 17 15 10 6 10 12 12 7 11 8 8 8 4 7 6 2 4 4 3
15 17 19 20 20 20 21 22 22 20 19 19 20 21 24 24 23 24 25 22 18 22 23 21 21 19 19 19 20 18 16 16 16 14 12 9 8 8 8 9 9 9 10 13 14 15 13 14 16 17 17 16 14 15 16 16 16 15 15 19 17 17 13 14 17 16 15 14 12 10 12 12 11 9 9 11 6 10 12 10 10 11 10 2 3
15 17 20 21 21 22 21 22 23 22 18 19 19 19 19 21 23 24 24 22 23 22 21 25 21 20 19 19 20 20 20 17 18 17 14 11 7 6 8 8 10 10 8 10 13 15 14 16 17 18 17 16 15 16 14 15 15 16 17 19 19 19 15 15 14 15 13 12 13 12 14 17 17 16 15 13 12 7 8 6 8 9 11 8 2
17 18 20 21 22 22 21 23 24 25 24 25 23 24 23 22 23 25 25 24 23 23 24 22 22 21 20 21 21 21 20 17 16 19 16 14 10 7 6 7 9 9 9 8 11 12 15 16 18 18 15 15 16 15 14 14 14 15 17 15 14 18 15 15 14 15 16 12 13 10 10 10 9 10 10 12 14 12 14 11 8 4 5 4 4
17 18 19 20 21 22 23 24 23 24 24 26 26 20 22 23 25 26 26 26 25 23 24 25 23 22 21 21 21 18 18 18 17 16 17 13 9 7 5 6 8 9 9 9 10 12 13 14 15 15 14 15 17 17 15 17 17 15 16 14 15 19 17 17 15 17 17 15 14 10 9 9 10 9 10 10 8 9 12 13 7 8 9 5 2
17 19 20 20 21 21 23 24 24 22 26 28 27 27 25 22 26 28 28 25 26 27 25 25 25 23 22 20 20 19 19 17 17 15 16 15 10 8 5 6 6 8 9 9 9 10 11 16 16 16 16 15 16 18 16 17 17 16 16 17 20 17 16 18 17 18 15 14 12 11 10 10 9 10 12 11 11 12 12 16 13 4 7 8 3
17 18 20 21 22 24 22 23 26 27 30 26 23 26 23 22 22 27 25 25 27 27 25 24 24 25 23 22 19 18 18 17 14 15 15 16 12 9 6 5 6 7 8 8 9 10 12 13 16 17 16 17 18 17 15 15 15 16 17 19 18 16 18 18 15 18 18 15 15 14 11 9 9 9 12 11 12 12 13 12 14 12 4 4 6
18 20 21 22 22 21 21 23 23 24 28 26 24 23 22 22 23 23 23 23 25 27 24 24 24 21 25 27 25 21 17 16 15 13 14 15 16 11 9 7 5 6 7 8 8 10 11 12 14 16 15 16 17 18 17 15 17 16 16 18 18 14 16 19 16 18 19 19 16 13 11 11 10 10 11 11 11 11 12 13 11 14 15 8 4
18 19 19 22 21 22 22 21 19 19 20 21 27 22 22 22 25 29 25 23 25 24 24 23 24 24 25 25 28 22 21 21 19 18 18 17 16 13 10 8 5 5 7 7 8 9 10 11 12 14 17 15 15 16 18 17 17 15 16 19 19 16 16 17 15 16 17 17 14 16 13 12 10 9 9 10 10 11 12 13 14 15 14 14 10
20 21 21 22 23 24 24 23 24 25 26 27 27 20 15 18 17 20 29 18 15 20 25 25 24 25 20 22 24 24 21 20 19 19 18 16 16 15 10 7 6 5 6 7 8 8 10 11 11 13 15 16 16 17 16 17 17 15 17 19 20 18 17 15 15 15 15 14 14 13 12 11 11 11 10 12 11 12 12 13 14 14 14 16 14
20 21 20 21 21 23 23 26 26 25 25 26 19 21 23 23 28 25 25 29 27 22 21 19 24 21 19 17 21 22 20 19 18 17 17 17 17 17 13 9 7 5 5 6 7 8 9 11 11 13 14 17 17 18 18 16 17 15 18 18 19 19 17 17 15 15 14 14 15 15 13 11 11 12 11 12 11 11 12 13 13 12 11 13 14
20 22 22 23 23 24 26 28 29 26 23 22 26 25 24 21 26 28 23 26 26 22 23 24 17 18 20 21 22 23 22 19 18 16 16 17 17 17 15 10 8 6 5 6 7 8 8 10 11 12 14 17 17 17 18 18 17 16 15 17 19 19 19 18 16 14 14 14 16 15 14 12 12 11 12 12 12 11 11 12 13 13 12 11 11
21 22 24 25 24 23 23 21 21 24 23 19 18 21 19 17 16 24 27 23 26 27 19 23 23 20 23 23 21 20 25 23 20 18 17 16 17 15 15 10 8 7 5 6 7 7 8 8 11 12 14 16 17 18 18 17 16 17 16 18 19 19 20 17 17 16 14 15 15 16 15 13 13 13 12 12 11 11 11 11 11 11 12 12 11
22 23 22 21 22 23 24 23 21 20 22 26 24 17 23 22 30 23 26 23 21 26 15 11 19 21 22 21 22 21 19 21 23 22 18 16 15 14 13 11 10 8 6 6 6 7 7 8 10 12 14 16 18 17 18 16 16 17 18 17 19 20 20 18 17 18 16 15 16 16 15 14 14 16 14 14 13 12 11 12 11 11 11 11 11
23 24 22 22 22 23 22 23 23 24 23 18 17 21 23 22 22 24 24 24 26 23 23 23 18 24 23 20 20 20 19 20 20 20 22 18 14 16 13 13 11 8 7 5 5 7 8 7 10 11 13 15 16 17 18 18 17 18 18 18 19 21 21 20 19 20 19 17 17 17 17 16 13 15 16 15 13 14 12 13 13 11 12 12 11
21 20 20 21 22 22 21 22 23 21 20 25 25 16 19 24 26 24 24 28 24 21 24 26 18 18 23 22 20 19 21 20 19 17 20 22 18 14 13 13 12 8 6 5 5 6 8 8 9 11 12 14 15 16 17 19 20 19 19 19 18 20 20 21 21 20 19 19 20 19 17 17 16 17 16 15 14 14 14 13 13 12 12 12 10
21 21 22 23 24 23 22 22 22 23 21 22 22 24 25 26 24 23 27 24 22 23 23 22 22 24 22 22 22 20 19 19 20 17 19 21 19 16 13 14 12 8 6 6 5 5 7 8 9 10 12 14 14 18 17 19 19 19 20 19 19 20 20 21 21 20 20 20 21 21 20 18 17 18 16 16 15 16 14 13 13 11 11 10 9
21 21 23 24 22 21 22 23 22 23 22 17 14 20 27 23 24 25 23 23 24 22 21 23 22 22 22 23 21 19 19 19 18 18 20 19 20 18 16 12 10 8 6 6 7 5 6 9 9 10 12 13 13 15 19 19 19 19 19 19 18 19 20 20 20 20 21 20 20 21 20 19 18 19 18 17 15 17 14 14 13 12 11 10 11
20 20 20 21 22 24 23 23 20 19 22 25 29 29 26 26 27 25 22 24 24 22 22 23 23 23 22 21 21 20 19 18 17 17 17 17 18 17 19 19 13 10 8 6 5 7 7 9 9 10 12 13 14 14 17 19 20 19 19 19 18 19 20 19 20 21 21 21 20 19 20 21 21 20 19 18 17 16 15 15 15 14 12 11 9
19 21 23 23 23 23 23 24 25 25 23 20 24 24 27 25 26 24 24 23 19 21 23 23 21 22 22 23 21 20 19 19 19 18 17 17 17 18 17 18 16 12 10 8 7 8 8 8 9 10 12 12 13 15 17 16 17 18 18 19 19 20 19 19 20 20 20 20 20 19 19 20 21 20 19 18 17 17 14 13 13 13 13 11 10
22 22 21 23 23 22 23 23 23 24 26 28 25 26 25 26 24 24 23 22 22 22 23 22 22 22 22 22 22 20 18 18 20 19 19 17 17 17 17 17 17 15 10 7 7 8 8 10 10 10 12 12 13 14 15 18 18 19 18 19 20 20 20 20 19 20 19 19 18 18 18 17 19 21 23 20 20 18 15 15 13 12 12 12 11
22 22 22 21 23 23 23 24 24 25 26 27 29 28 27 26 27 26 23 22 21 23 22 23 22 22 22 22 23 22 21 20 19 19 19 18 17 16 16 18 17 15 11 7 8 8 9 10 11 11 11 12 12 13 16 24 24 20 20 17 17 19 20 19 19 19 19 19 19 18 18 22 20 21 21 23 23 23 24 20 18 15 14 13 13
21 21 21 22 23 23 24 24 25 26 26 21 22 27 27 27 25 25 25 23 23 23 22 22 23 22 22 22 22 22 22 22 20 19 17 18 18 16 16 17 17 17 15 12 10 11 10 10 11 11 12 13 13 14 20 24 26 27 21 18 17 17 18 19 18 19 19 19 17 17 15 18 20 20 19 22 21 22 20 19 19 19 19 19 17
20 20 21 22 23 24 24 24 25 25 26 23 25 27 26 26 26 24 23 25 23 23 24 24 23 23 22 23 21 22 22 22 21 19 17 17 17 17 17 17 17 18 17 13 13 13 12 11 10 11 12 13 14 19 22 25 27 27 24 19 17 15 16 17 17 18 17 17 18 16 14 12 13 18 18 17 18 21 20 19 19 17 18 20 21
20 20 20 21 22 23 23 23 23 22 23 26 26 27 25 24 27 27 26 24 24 23 23 24 23 22 22 21 21 21 22 20 20 19 17 16 17 17 17 17 18 17 16 16 15 13 13 12 11 12 12 13 14 20 23 26 29 29 28 23 15 17 16 16 17 17 17 17 16 15 15 14 14 22 18 16 15 16 20 21 17 18 18 19 19
18 18 19 20 20 20 21 22 23 23 23 24 26 25 25 25 22 22 23 25 25 23 22 22 22 22 22 21 21 20 21 21 18 18 17 17 16 18 17 16 15 16 16 16 14 13 12 12 12 12 12 13 14 20 24 26 30 31 30 25 17 17 17 18 18 17 15 16 17 16 15 15 14 17 17 17 15 14 13 13 12 11 12 16 17
18 20 20 21 22 23 23 24 23 23 23 25 28 25 23 22 23 26 24 23 23 23 22 22 22 22 21 20 21 20 21 19 19 19 18 17 15 16 17 15 15 16 16 15 14 14 13 13 12 11 11 13 14 23 24 26 29 31 31 26 17 16 15 15 16 17 17 18 18 17 17 18 17 18 17 19 17 15 14 13 12 11 12 13 14
17 19 20 21 22 22 23 23 22 22 22 23 24 25 26 26 24 23 24 24 23 22 22 22 22 22 21 20 20 20 20 20 19 20 20 18 16 15 16 16 16 15 15 14 13 12 12 12 11 11 12 13 15 24 24 26 30 30 31 20 16 16 15 15 15 15 15 15 16 16 15 16 17 17 20 26 22 17 16 18 17 13 11 11 13
17 17 19 19 20 21 22 21 21 21 21 22 24 24 23 25 23 21 22 21 20 21 21 21 21 22 22 21 20 20 21 21 20 19 21 19 16 16 16 14 15 17 15 14 14 12 11 11 12 11 12 13 14 20 23 28 29 31 27 17 15 14 14 15 14 13 14 13 13 16 17 15 15 16 22 27 25 23 17 19 17 16 13 12 12
16 17 18 18 19 20 21 20 23 23 22 22 22 23 25 23 24 24 24 22 22 22 22 22 22 22 22 21 20 20 21 21 20 19 19 19 17 15 14 13 15 16 16 14 12 12 11 10 11 12 12 12 14 18 22 27 31 31 26 18 14 14 13 14 13 13 11 11 13 20 19 16 16 17 23 28 28 23 18 20 19 17 16 15 13
15 17 19 21 21 21 21 21 21 22 22 25 27 26 22 23 23 23 24 23 21 21 21 21 22 22 21 20 20 20 20 20 20 20 19 20 19 16 13 13 13 14 15 11 10 9 8 8 9 11 14 15 14 17 21 27 30 31 26 17 15 13 14 13 13 12 11 11 12 14 20 18 18 18 27 28 29 24 18 19 20 19 18 18 16
18 17 17 20 20 21 22 22 23 23 24 27 25 23 22 20 22 22 22 22 22 24 24 23 23 23 21 20 18 20 20 20 20 20 19 18 17 14 13 13 14 14 15 14 9 8 8 8 8 9 11 13 14 14 16 27 28 29 29 18 14 15 15 15 14 14 12 10 11 11 15 20 21 21 24 28 28 28 20 17 16 18 20 20 14
17 18 21 19 19 20 21 22 20 22 22 23 21 22 23 22 23 24 26 25 24 23 23 22 21 21 21 22 20 18 20 21 19 19 18 18 17 15 13 11 13 14 14 9 6 5 7 9 9 10 11 12 12 13 14 26 28 30 30 24 14 16 15 15 14 13 13 13 12 12 10 17 21 22 24 27 28 29 25 19 19 18 20 20 19
13 15 15 16 18 19 22 23 21 20 20 20 20 23 22 23 22 23 25 25 25 25 24 23 23 23 22 20 20 20 19 17 17 17 17 18 17 16 14 13 11 12 11 7 5 6 7 8 9 10 10 11 12 17 11 22 28 29 29 29 17 15 15 15 14 13 13 13 14 13 12 17 21 21 22 25 27 27 27 16 20 21 21 22 21
18 19 18 17 18 20 20 23 21 20 18 19 22 22 21 22 23 26 26 25 24 24 24 23 23 23 22 22 20 19 18 15 15 16 17 18 17 15 13 12 13 13 12 10 8 7 7 9 9 9 9 9 10 10 16 17 27 30 31 29 25 17 21 16 15 15 15 14 12 13 14 22 23 21 21 23 25 28 24 18 23 23 20 20 20
15 14 17 18 19 19 20 21 20 18 20 21 18 19 21 24 26 25 25 24 24 23 24 24 21 20 20 19 18 17 15 14 15 15 15 16 17 15 12 10 10 10 10 9 7 6 7 8 8 8 7 7 8 8 12 19 21 29 29 30 26 23 23 16 15 14 13 12 12 13 15 25 25 24 24 24 24 24 19 24 22 24 23 22 12
16 17 17 16 17 21 22 23 21 21 19 18 18 22 25 25 24 24 25 25 25 25 24 23 21 19 18 16 14 13 13 12 13 13 14 14 16 14 12 11 10 10 10 9 7 6 7 8 7 7 6 6 6 7 8 14 22 26 29 29 26 25 25 23 16 11 13 13 16 21 23 26 26 25 25 24 22 24 26 23 25 26 24 13 14
14 14 16 16 17 19 19 21 24 21 19 19 20 19 23 25 24 23 24 25 25 26 26 24 22 17 19 19 17 17 14 13 13 11 12 12 13 12 11 10 9 9 8 8 7 6 6 7 7 6 5 5 5 5 6 9 12 19 22 26 25 24 25 23 19 13 17 18 20 22 27 27 25 22 17 13 12 16 24 22 22 20 13 12 15
15 16 16 16 17 18 20 22 24 21 20 22 20 18 19 21 23 23 24 26 24 24 23 22 19 18 17 18 19 16 12 9 8 9 10 11 11 10 10 10 8 7 7 7 6 6 6 7 6 5 4 4 5 5 5 5 8 10 11 17 21 17 21 20 15 11 14 13 18 19 17 20 18 25 24 22 21 19 16 14 12 12 13 15 15
12 14 15 16 15 17 20 22 21 20 20 20 19 19 19 21 20 21 23 25 24 22 21 21 21 17 15 16 18 23 22 15 11 9 9 10 9 9 10 9 8 8 8 7 6 6 6 6 5 4 4 4 6 5 6 7 8 9 10 11 13 13 13 13 13 11 11 12 12 13 14 11 11 13 14 11 10 10 13 14 15 15 15 13 13
14 14 14 15 16 18 19 20 20 19 19 19 20 20 20 21 20 20 22 24 23 25 22 21 19 17 17 18 17 17 17 16 15 14 10 9 10 7 8 9 9 8 7 7 6 7 7 5 5 4 5 6 6 7 8 7 8 10 10 10 10 11 11 10 12 13 9 8 8 10 10 11 11 13 13 13 12 12 12 13 15 15 14 13 11
12 11 13 15 16 17 19 20 18 18 18 19 20 20 20 19 19 19 21 22 23 21 20 19 18 18 18 18 18 18 17 16 15 14 14 12 12 16 13 10 8 10 15 15 11 8 6 4 5 4 5 6 6 4 9 12 12 13 13 15 14 14 13 10 13 18 14 11 11 11 11 11 11 11 12 12 13 12 13 13 13 14 14 13 13
13 13 13 14 16 17 17 18 18 17 18 19 19 18 19 20 20 20 20 20 21 18 18 17 18 17 21 20 18 17 17 16 15 14 14 14 13 9 15 20 19 16 13 13 15 16 14 9 5 5 4 6 6 13 17 16 16 16 15 15 15 18 20 20 21 16 12 12 12 12 12 11 12 12 13 13 13 13 13 13 14 14 13 14 14
Wind_Direction
348 343 349 345 344 337 341 341 339 337 338 337 332 336 338 337 333 332 331 330 328 325 322 324 326 324 321 320 316 312 312 313 308 305 305 303 299 292 277 257 245 237 229 219 213 230 218 211 197 172 174 184 183 186 167 172 170 173 168 164 160 159 161 160 157 141 133 111 103 96 77 53 96 111 126 133 156 153 149 152 162 158 154 154 163
345 348 346 347 348 343 344 342 341 339 339 334 332 332 330 328 327 326 324 323 322 320 316 311 315 317 316 315 314 308 310 310 313 311 308 301 295 292 284 270 256 248 238 222 214 222 224 219 213 187 178 181 189 181 174 174 172 166 158 157 167 163 159 161 156 145 148 149 142 120 81 53 36 87 108 141 145 143 149 157 159 171 153 155 157
350 347 345 347 349 347 344 338 334 335 330 328 328 327 325 323 322 321 318 314 312 312 312 310 307 307 310 307 306 307 300 299 300 305 305 305 305 301 293 283 267 252 240 225 216 216 210 209 219 198 182 183 183 183 176 168 156 154 162 156 158 162 153 162 163 176 151 152 139 130 160 138 52 74 74 71 139 144 147 157 164 169 157 152 156
345 345 345 346 343 342 339 337 336 333 329 325 327 323 320 317 318 315 313 310 303 302 303 304 304 298 296 299 301 302 302 296 293 299 312 319 318 314 307 304 286 265 252 225 211 212 211 206 207 200 186 189 185 174 176 170 157 157 165 162 157 150 166 173 178 180 157 148 159 176 154 147 132 235 145 66 3 119 150 159 167 156 153 150 155
339 343 346 342 343 340 336 333 332 328 325 326 326 324 319 314 313 312 310 306 302 299 299 302 301 300 300 298 300 303 302 299 303 310 320 316 314 312 313 311 304 293 267 237 213 217 212 208 200 201 191 190 187 180 182 175 171 165 162 160 168 165 164 166 186 189 181 171 145 131 134 177 189 150 119 59 33 90 49 131 148 141 142 153 164
343 346 348 345 339 334 331 331 332 327 327 326 323 319 318 315 312 308 305 303 300 300 300 298 298 299 300 300 301 307 307 311 314 319 322 318 313 308 306 308 305 295 286 269 225 212 218 209 207 191 191 186 196 185 183 176 174 172 172 166 171 173 163 166 175 199 193 192 178 167 169 169 160 155 153 172 358 18 23 37 119 121 139 146 157
350 352 348 340 335 330 327 329 329 328 326 325 322 319 316 313 310 308 306 302 299 297 298 296 296 297 295 294 295 296 296 294 298 294 295 299 300 303 304 310 309 304 297 279 243 222 213 204 197 200 194 186 182 182 183 180 179 175 171 170 174 168 163 166 175 177 179 224 192 56 85 96 135 149 173 105 136 198 101 147 140 104 113 131 147
350 350 340 335 331 328 326 326 326 325 323 321 318 317 316 314 310 306 303 300 298 297 295 295 295 294 294 293 291 288 288 290 297 289 281 286 293 298 306 301 303 307 307 297 266 227 209 205 196 193 196 189 183 185 176 184 181 177 176 172 166 173 176 174 174 168 174 192 178 112 98 120 141 133 135 158 157 153 166 8 34 90 103 82 103
347 341 334 330 329 327 323 322 322 322 323 320 317 314 312 309 306 305 303 301 300 294 287 291 290 290 290 291 288 285 285 285 290 289 278 282 293 303 303 301 296 301 307 308 292 250 217 204 200 195 189 193 193 188 185 179 179 178 170 174 180 181 183 177 172 176 178 172 160 148 130 137 144 127 133 130 140 144 147 168 152 67 87 80 68
340 333 328 325 325 323 322 321 321 321 317 312 313 317 316 309 302 302 303 302 300 302 298 292 290 290 288 287 286 286 285 285 286 288 285 284 289 298 301 305 307 305 316 315 311 283 237 210 200 197 191 190 192 192 186 182 178 174 168 178 180 176 185 181 179 180 182 169 161 152 142 142 136 134 153 148 133 157 161 175 164 160 157 132 57
333 328 324 323 322 322 323 321 319 316 311 311 307 301 301 306 307 304 303 305 303 302 302 298 293 287 286 285 286 285 282 279 283 283 288 286 286 297 303 307 307 307 312 315 309 304 255 221 212 204 195 190 190 190 188 184 179 179 173 175 179 180 180 186 180 175 176 171 170 169 163 164 166 167 165 159 151 145 127 147 162 175 157 144 146
330 326 322 321 320 320 322 321 320 318 317 316 317 319 313 309 307 306 306 306 305 303 300 296 294 289 284 284 283 283 281 278 275 280 283 284 289 291 296 302 306 306 307 307 305 312 296 234 209 206 199 187 189 189 186 183 179 181 178 174 176 181 179 179 177 177 176 170 177 174 166 161 148 148 156 161 159 157 152 155 155 127 92 93 119
329 325 322 321 321 322 322 319 316 319 320 316 314 313 314 312 309 309 307 308 303 304 301 296 293 289 286 285 284 282 283 279 274 275 278 275 277 283 290 291 303 305 308 308 306 314 313 279 221 202 195 190 187 186 183 182 182 179 181 174 174 178 180 178 177 180 177 172 175 174 156 146 151 145 144 151 146 139 149 148 168 162 151 127 127
329 325 322 321 320 320 320 320 322 318 319 323 322 318 320 313 311 310 308 308 310 309 303 300 297 290 285 283 283 284 280 276 274 271 275 275 269 268 263 277 284 289 299 296 300 306 302 296 259 215 195 194 185 185 183 183 179 180 179 177 180 182 179 180 178 176 178 174 163 162 164 152 148 151 151 150 150 149 161 162 155 157 143 149 113
327 323 321 320 321 323 322 321 322 320 320 319 317 314 315 312 311 308 313 322 319 315 314 311 307 303 298 288 286 284 279 277 273 269 271 274 269 264 248 238 259 277 282 290 297 294 291 294 282 236 202 192 185 186 180 180 181 180 183 185 182 180 178 178 181 175 174 171 172 170 161 152 153 163 157 161 157 161 158 158 151 141 104 121 151
325 321 320 320 322 322 321 323 324 321 318 315 313 315 314 316 319 323 326 326 320 312 307 306 303 297 297 300 291 282 278 276 271 266 267 269 272 263 259 241 232 258 270 281 286 288 292 297 296 262 220 197 187 186 184 179 180 181 183 184 183 180 177 177 178 180 177 172 172 165 158 164 159 166 166 165 166 161 157 157 166 150 148 157 166
323 321 320 321 319 316 316 317 310 307 307 311 314 316 320 330 329 320 320 321 314 309 309 307 300 292 287 283 290 286 281 277 274 271 268 271 270 264 257 252 224 240 262 275 287 289 292 295 295 281 236 205 189 190 184 179 179 181 182 183 182 177 177 178 175 178 179 171 168 168 168 162 163 164 167 168 169 167 166 168 169 167 165 154 167
321 318 319 321 320 321 323 321 320 321 322 323 322 330 335 325 299 306 308 290 301 313 314 312 305 297 288 285 283 287 282 279 276 273 272 269 267 267 255 248 225 225 255 277 284 289 292 292 292 286 257 219 190 187 185 182 181 184 184 185 181 173 177 178 176 176 176 172 169 165 161 164 164 165 174 176 178 177 173 175 179 180 174 171 174
324 325 325 322 322 323 324 324 324 323 325 324 324 321 316 315 315 322 316 316 317 319 313 306 310 316 308 284 280 286 283 278 277 275 273 269 268 267 257 251 246 218 252 267 279 289 290 290 290 289 267 229 197 187 188 184 181 185 184 182 180 172 175 179 180 174 175 171 168 167 167 165 166 170 172 177 182 180 178 179 184 186 190 183 175
324 325 325 325 327 328 328 327 325 323 322 327 327 320 315 323 319 315 320 309 307 303 308 303 305 312 310 315 316 310 301 288 278 276 273 270 268 267 259 252 246 238 231 256 272 282 285 289 292 291 283 237 204 189 187 186 183 187 183 182 180 175 175 179 178 177 172 175 170 169 170 169 171 169 175 178 180 182 177 179 184 184 185 187 180
326 326 324 323 323 324 322 321 323 326 324 318 317 320 314 306 310 316 315 319 314 311 309 308 315 307 308 313 315 315 309 306 299 283 276 271 269 266 262 252 252 243 214 242 264 275 281 285 287 289 287 265 218 191 186 186 184 184 182 182 181 177 176 179 175 177 175 174 174 172 174 175 170 176 181 178 180 182 177 180 184 186 188 191 181
324 324 323 322 322 323 323 323 321 320 323 328 324 309 321 324 326 327 312 313 308 306 317 318 306 304 303 306 308 310 304 303 307 302 285 274 267 264 260 252 246 240 211 227 256 272 278 282 285 287 287 273 234 200 186 184 183 183 182 182 180 179 179 178 177 176 177 177 176 176 178 179 179 180 181 186 183 181 181 181 184 186 190 190 186
326 324 321 320 322 323 323 321 321 323 321 320 323 322 326 328 322 320 314 311 315 311 307 303 312 306 303 303 304 303 304 302 303 305 303 289 274 271 264 259 250 238 231 214 231 264 278 281 282 284 286 282 247 207 188 185 185 185 181 182 181 180 179 179 181 180 178 177 175 180 184 182 179 183 187 189 185 185 182 184 184 185 186 189 187
322 320 320 322 322 322 322 322 321 321 327 328 324 310 320 330 325 322 316 316 313 311 313 313 311 303 303 302 300 301 304 303 299 297 296 300 291 278 275 269 256 235 241 234 206 242 277 278 279 281 283 282 258 223 192 187 186 184 183 183 182 182 182 182 182 181 180 177 178 182 186 183 180 186 188 188 190 186 185 186 186 186 183 185 183
321 321 323 324 324 324 323 323 322 322 323 326 325 325 327 321 322 318 318 318 314 316 310 301 304 304 301 300 299 299 299 299 300 300 298 295 293 286 277 270 261 236 232 245 240 224 267 274 277 281 285 284 267 225 200 190 187 185 184 184 183 183 184 184 183 182 180 182 181 182 184 184 182 185 188 189 187 187 186 183 184 180 181 178 175
319 322 325 324 322 320 322 324 326 326 323 313 308 326 325 320 318 320 314 313 314 312 308 308 308 301 301 298 298 297 297 297 298 301 304 305 302 303 295 273 262 240 235 236 252 254 266 276 277 281 282 283 280 243 205 189 187 186 184 183 182 184 185 184 183 182 183 184 184 184 181 181 185 187 188 188 185 185 182 183 180 179 177 171 175
322 326 323 319 318 320 320 321 319 317 328 333 333 329 327 321 320 318 315 314 312 309 308 307 304 301 299 299 300 298 297 296 297 296 296 298 302 305 306 299 278 256 249 242 240 259 266 274 279 283 282 284 285 262 222 192 184 184 183 183 182 184 184 184 184 183 184 186 187 185 182 183 185 188 185 185 184 183 184 184 182 178 174 169 171
322 325 325 321 318 317 320 322 328 331 325 316 329 330 324 323 321 319 316 313 308 310 309 305 303 302 300 301 299 299 298 296 294 293 292 293 293 294 292 293 295 277 257 249 255 263 271 274 279 280 282 285 284 270 228 200 183 182 184 184 182 183 183 185 184 184 184 186 186 187 187 186 186 186 185 184 180 183 183 184 184 177 174 169 169
324 325 323 320 316 314 315 319 324 324 326 332 330 328 325 321 320 317 315 311 312 309 306 305 304 301 300 300 300 299 296 296 297 294 291 289 291 292 291 287 289 284 264 254 260 268 275 279 280 279 285 286 282 272 231 197 184 184 186 185 183 182 182 183 185 185 185 186 187 187 190 190 186 184 183 181 183 181 179 184 186 176 173 168 167
324 322 320 317 314 314 316 318 320 322 325 327 328 328 324 320 318 316 314 312 312 307 304 303 301 299 299 300 300 298 296 295 294 292 289 291 289 290 292 289 283 284 278 263 268 268 270 274 281 284 285 285 282 276 237 207 184 182 185 184 184 183 182 182 184 185 184 185 187 188 191 189 183 181 181 184 186 187 187 184 180 176 175 171 172
321 320 319 316 315 315 317 319 321 322 322 323 323 323 320 317 317 316 315 313 310 305 303 302 301 300 300 299 298 296 294 292 290 288 289 288 287 285 284 284 283 278 278 278 272 272 270 271 273 279 283 283 282 276 245 210 191 182 181 182 184 184 182 181 184 184 184 184 186 188 188 185 179 179 185 184 183 189 190 187 185 183 179 175 173
321 320 319 318 316 317 319 319 319 320 321 323 326 325 320 317 315 315 316 316 310 306 304 301 300 300 298 296 295 294 291 286 285 285 285 284 282 282 281 280 280 276 272 273 272 268 269 270 270 271 273 276 280 277 255 212 194 184 181 180 182 181 182 183 185 185 185 182 184 183 179 176 181 182 181 181 182 184 187 187 182 184 192 189 183
319 318 317 316 315 315 315 316 316 318 319 322 325 323 320 318 318 315 313 312 310 305 301 300 299 298 296 295 294 295 293 288 283 282 281 281 281 279 278 278 275 272 269 264 262 264 264 265 265 267 270 273 278 276 263 214 194 185 182 179 181 179 180 186 185 184 184 183 182 180 180 180 181 179 182 183 180 183 185 184 180 181 190 197 196
315 315 316 315 314 313 313 314 314 314 315 316 323 318 315 316 314 317 314 309 306 304 302 299 299 298 297 295 294 292 290 288 284 278 276 274 276 276 275 276 277 274 266 259 255 257 260 260 261 263 268 273 273 277 263 217 196 184 181 179 178 180 183 186 185 182 182 183 182 180 179 184 176 178 184 182 181 179 179 178 177 180 186 196 200
316 318 318 317 315 314 315 318 321 321 319 322 324 322 318 315 313 310 310 311 309 304 302 301 298 297 296 295 295 293 291 293 295 287 273 268 266 273 272 275 275 268 262 258 256 255 255 255 257 259 265 269 273 273 261 214 197 185 179 179 178 179 181 184 186 184 184 183 182 182 182 182 177 178 184 180 177 176 172 174 175 179 183 188 194
316 316 316 317 315 314 316 317 318 318 317 322 321 321 315 313 317 315 315 313 308 305 303 302 300 299 297 295 294 294 294 294 295 295 285 268 268 270 272 273 271 264 258 257 251 246 248 252 256 260 263 266 270 270 254 212 194 184 178 180 177 178 178 182 185 186 184 184 182 179 179 185 183 175 178 176 177 171 173 171 175 177 182 191 198
310 312 311 312 311 313 314 315 314 316 317 320 325 323 318 315 315 313 307 305 307 304 303 302 300 300 299 298 296 295 294 292 291 289 288 280 272 273 272 268 268 273 262 249 248 244 246 250 253 252 256 262 267 266 247 206 193 185 177 181 176 176 178 180 184 184 185 182 182 179 179 182 183 178 174 177 174 169 175 175 176 176 181 186 198
311 312 312 315 317 316 317 319 319 318 318 324 324 322 316 308 311 315 318 315 313 310 308 305 301 300 298 296 294 291 290 289 288 285 284 285 278 274 274 264 264 267 261 245 242 242 240 241 245 253 252 260 263 260 236 205 189 184 178 178 174 175 178 179 180 181 179 181 184 183 184 179 178 182 178 180 177 173 173 176 176 176 178 189 195
318 320 321 322 322 320 317 317 316 314 321 325 323 321 319 317 317 318 318 311 306 304 305 303 300 298 296 294 291 289 287 286 285 284 285 283 273 264 264 266 264 269 273 257 236 237 239 240 245 252 257 254 256 255 231 201 189 182 178 176 173 171 174 178 176 179 182 180 182 183 184 182 185 182 177 181 180 177 178 177 177 175 183 190 193
325 324 324 320 320 322 322 323 321 321 325 325 324 325 323 314 307 307 309 311 314 314 310 304 300 298 296 293 289 284 281 281 280 279 278 279 280 270 260 263 267 264 261 252 234 233 242 251 250 256 258 249 246 244 225 203 187 183 179 174 171 171 175 176 178 177 177 182 180 181 188 187 184 178 177 179 181 178 177 179 177 181 183 192 182
326 326 328 326 325 323 317 316 316 318 321 324 323 324 319 315 317 319 316 315 311 305 303 305 302 298 294 290 286 279 277 276 274 275 276 275 273 269 263 257 264 269 258 236 234 245 255 262 261 261 258 247 236 231 219 200 187 181 180 175 177 177 174 172 175 175 179 179 180 183 181 189 185 180 178 182 181 180 180 178 183 189 189 184 168
320 320 321 320 319 315 314 314 317 315 320 322 321 318 319 327 323 315 314 311 311 312 306 302 300 297 291 285 281 278 274 272 272 271 271 270 270 262 254 256 257 266 271 261 253 258 262 268 272 263 253 243 229 221 208 202 186 180 180 180 176 180 171 168 171 176 181 182 183 179 178 185 185 184 181 183 183 184 182 178 189 193 191 175 177
328 328 329 329 322 320 318 314 316 318 321 323 321 321 324 319 317 318 318 317 313 307 309 307 301 293 287 282 277 271 270 268 267 267 267 269 269 266 258 253 256 260 265 266 260 259 264 270 271 263 247 231 221 216 203 199 191 180 182 184 179 171 168 168 172 178 182 182 180 177 179 177 180 180 180 184 186 186 182 191 189 187 184 189 185
320 321 321 325 321 318 316 314 313 317 322 326 328 320 319 324 322 321 319 313 311 316 313 304 298 295 287 280 273 270 262 257 259 263 265 265 267 264 258 258 254 253 258 257 254 256 261 265 265 263 240 221 215 204 205 199 194 186 183 184 180 171 171 177 178 179 177 175 172 177 176 177 179 178 179 182 188 187 191 191 181 185 179 183 174
323 323 325 326 322 318 315 312 315 318 321 325 325 323 326 323 322 325 321 320 317 308 306 305 299 292 288 280 271 269 265 264 261 257 260 261 262 257 254 254 252 250 247 248 251 250 258 264 261 251 234 213 210 207 195 201 199 190 186 185 180 175 179 175 176 175 172 176 180 174 170 175 178 178 179 180 185 191 196 192 184 184 180 175 177
318 319 326 324 320 314 312 313 314 319 323 327 329 331 323 320 321 323 325 320 314 316 313 306 302 301 310 310 304 300 283 263 258 252 250 252 259 260 251 250 245 240 238 239 243 244 249 253 254 241 224 208 203 197 194 194 203 196 187 184 183 179 179 178 176 170 173 173 172 170 171 174 173 175 176 177 184 193 197 192 192 184 181 181 184
323 324 327 325 324 321 320 320 317 321 326 329 328 323 321 319 322 325 322 321 321 313 310 309 306 310 308 320 323 319 308 277 257 264 260 261 256 249 250 252 247 243 239 239 241 240 241 243 244 230 213 197 194 194 183 182 192 195 195 186 183 181 177 175 174 165 166 163 166 172 176 174 176 178 178 182 185 186 186 184 187 186 192 193 192
320 321 325 322 321 320 317 319 317 320 325 324 322 324 322 322 325 325 326 324 319 317 315 305 304 314 322 328 327 326 326 316 300 282 282 281 263 237 241 242 241 237 235 238 233 236 234 230 228 216 199 185 191 194 189 179 184 189 192 186 185 179 174 177 175 171 169 164 160 163 162 163 165 171 180 181 181 174 178 183 189 192 200 202 198
324 328 329 325 322 319 318 316 317 319 322 320 324 324 324 330 327 328 329 327 321 318 312 307 312 324 330 333 330 326 323 321 319 311 286 266 271 264 241 240 235 228 228 234 235 240 237 231 218 210 194 195 185 197 203 184 173 178 181 176 183 183 173 174 168 146 129 119 132 150 157 165 171 177 183 186 183 180 186 188 189 191 195 195 191
322 324 323 321 319 317 318 318 316 319 322 322 322 322 328 328 330 332 331 329 323 318 319 321 323 330 334 334 334 329 326 324 320 316 315 300 261 249 249 248 252 229 227 230 232 239 236 227 231 226 204 196 199 188 142 150 158 167 179 183 177 169 167 150 145 143 144 148 160 164 172 174 174 177 183 186 185 186 187 186 191 195 194 194 195
325 325 324 323 319 319 318 318 319 323 320 323 320 324 327 331 334 333 334 330 323 320 322 324 328 335 337 335 333 329 327 324 322 319 314 311 309 270 239 242 244 250 242 232 231 237 245 244 231 239 237 246 171 148 157 165 166 170 177 183 177 170 163 157 150 145 155 162 167 175 177 179 180 179 184 189 188 187 190 190 189 188 193 196 196